User: anonymous   Login
Location: Unspecified
(0.0000°N, 0.0000°E)
Time: 20:57:20
(UTC+02:00)
Language:

Gbstr 26 Del rocket - Orbit

View from above orbital plane
View from above orbital plane
View from above satellite
View from above satellite

Ground track
Ground track

The orbit data is extracted from the following two-line orbital elements,

1 25876U 99041E   15241.01017675  .00000172  00000-0  69125-4 0  9998
2 25876 051.7692 032.5612 0534149 270.5591 083.4184 14.03385263822166
Epoch (UTC): 29 August 2015 00:14:39
Eccentricity: 0.0534149
inclination: 51.7692°
perigee height: 494 km
apogee height: 1270 km
right ascension of ascending node: 32.5612°
argument of perigee: 270.5591°
revolutions per day: 14.03385263
mean anomaly at epoch: 83.4184°
orbit number at epoch: 82216

The dashed part of the orbit path shows where the satellite is in the earth's shadow,  

DLR